[Date Prev][Date Next][Thread Prev][Thread Next] - [Date Index][Thread Index][Author Index]
2 Line ISS Keps 2-26
- Subject: [sarex] 2 Line ISS Keps 2-26
- From: "Dave Larsen PhD" <doc@xxxxxxxxxxx>
- Date: Thu, 26 Feb 2004 02:59:23 -0800
ISS
1 25544U 98067A 04057.18351539 .00022566 00000-0 20806-3 0 2668
2 25544 51.6294 176.0427 0006128 209.3498 224.6843 15.67506233300749
----
Via the sarex mailing list at AMSAT.ORG courtesy of AMSAT-NA.
To unsubscribe, send "unsubscribe sarex" to Majordomo@amsat.org
AMSAT Home